Regional Weather Roundup
Issued by NWS Burlington, VT

Home | Current Version | Previous Version | Text Only | Print | Product List | Glossary On
Versions: 1 2 3 4 5 6 7 8 9 10 11 12 13 14 15 16 17 18 19 20 21 22 23 24 25 26 27 28 29 30 31 32 33 34 35 36 37 38 39 40 41 42 43 44 45 46 47 48 49 50
000
ASUS41 KBTV 310110
RWRBTV
VERMONT REGIONAL WEATHER ROUNDUP
NATIONAL WEATHER SERVICE BURLINGTON VT
900 PM EDT MON MAY 30 2016

NOTE: "FAIR" INDICATES FEW OR NO CLOUDS BELOW 12,000 FEET WITH NO
SIGNIFICANT WEATHER AND/OR OBSTRUCTIONS TO VISIBILITY.

* THESE REPORTS ARE NOT UNDER NWS QUALITY CONTROL AND/OR DO NOT
  REPORT WEATHER SUCH AS PRECIPITATION AND FOG.

VTZ001>019-310200-
_____VERMONT_____


CITY           SKY/WX    TMP DP  RH WIND       PRES   REMARKS
BURLINGTON     FAIR      79  52  38 W9        29.82R
MONTPELIER     FAIR      75  51  43 VRB3      29.89R
MORRISVILLE    FAIR      70  52  52 S5        29.85R
ST. JOHNSBURY*   N/A     72  65  78 MISG      29.81R
LYNDONVILLE*   FAIR      73  57  58 CALM      29.86R
RUTLAND*       FAIR      77  64  64 SW8       29.88R
SPRINGFIELD    FAIR      74  67  78 SE3       29.88R
HIGHGATE*      FAIR      74  58  58 CALM      29.81R
NEWPORT*       FAIR      73  54  52 SW7       29.83R
BENNINGTON     FAIR      72  64  76 CALM      29.91R
SUTTON*          N/A     70 N/A N/A MISG        N/A

_____LAKE CHAMPLAIN_____


CITY           SKY/WX    TMP DP  RH WIND       PRES   REMARKS
BURTON ISLAND*   N/A     75  59  57 W8          N/A
COLCHESTER RF*   N/A     79  55  44 W20         N/A
DIAMOND ISL*     N/A     79  54  41 SW10        N/A

$$

NYZ007-026>031-035-052-083-087-310200-
_____NORTHERN NEW YORK_____


CITY           SKY/WX    TMP DP  RH WIND       PRES   REMARKS
PLATTSBURGH    CLEAR     74  57  55 CALM      29.80R
SARANAC LAKE   CLEAR     69  52  54 SW8       29.89R
MASSENA        CLEAR     75  58  55 SW12      29.81R
OGDENSBURG*    CLEAR     72  61  68 SW7       29.84R
WATERTOWN      PTCLDY    66  56  70 W8        29.88R
ALBANY         CLOUDY    70  65  84 S8        29.90R
GLENS FALLS    CLOUDY    75  63  66 S6        29.87R

$$
NHZ002-005-011-310200-
_____NEW HAMPSHIRE_____


CITY           SKY/WX    TMP DP  RH WIND       PRES   REMARKS
LEBANON        MOCLDY    76  67  73 S13       29.85R
MT WASHINGTON  MOCLDY    52  50  93 W47G58      N/A
PLYMOUTH       FAIR      75  64  69 CALM      29.83R
WHITEFIELD     CLOUDY    75  60  59 SW3       29.83R

$$

_____REGIONAL QUEBEC LOCATIONS_____


CITY           SKY/WX    TMP DP  RH WIND       PRES   REMARKS
MONTREAL       PTCLDY    77  59  53 SW18G25   29.76R
QUEBEC CITY    PTCLDY    72  61  68 SW6       29.68R
SHERBROOKE     CLEAR     72  57  60 SW8       29.79R

_____REGIONAL ONTARIO LOCATIONS_____


CITY           SKY/WX    TMP DP  RH WIND       PRES   REMARKS
OTTAWA         PTCLDY    73  52  46 W10G17    29.81R

______KEY______
VSB  - VISIBILITY IN MILES
WCI  - WIND CHILL INDEX
HX   - HEAT INDEX
$$
NNNN




USA.gov is the U.S. government's official web portal to all federal, state and local government web resources and services.